User: anonymous   Login
Location: Unspecified
(0.0000°N, 0.0000°E)
Time: 06:57:22
(UTC+00:00)
Language:

SAR-Lupe-1 - Orbit

View from above orbital plane
View from above orbital plane
View from above satellite
View from above satellite

Ground track
Ground track

The orbit data is extracted from the following two-line orbital elements,

1 29658U 06060A   17188.10524350 0.00001000  00000-0  37463-4 0    08
2 29658  98.1448 241.3234 0005000 142.2634 217.7364 15.27293933    06
Epoch (UTC): 07 July 2017 02:31:33
Eccentricity: 0.0005000
inclination: 98.1448°
perigee height: 480 km
apogee height: 487 km
right ascension of ascending node: 241.3234°
argument of perigee: 142.2634°
revolutions per day: 15.27293933
mean anomaly at epoch: 217.7364°
orbit number at epoch: 0

The dashed part of the orbit path shows where the satellite is in the earth's shadow,  

DLR